Regional Weather Roundup
Issued by NWS

Home | Current Version | Previous Version | Text Only | Print | Product List | Glossary Off
Versions: 1 2 3 4 5 6 7 8 9 10 11 12 13 14 15 16 17 18 19 20 21 22 23 24 25 26 27 28

000
ASUS45 KSLC 310310
RWRUT

UTAH REGIONAL WEATHER ROUNDUP
NATIONAL WEATHER SERVICE SALT LAKE CITY UT
900 PM MDT MON MAY 30 2016

UTZ001>011-023>025-310400-

NORTHERN UTAH

CITY           SKY/WX    TMP DP  RH WIND       PRES   REMARKS
BRIGHAM CITY     N/A     68  32  26 NW16      30.05S
HILL AFB       PTCLDY    68  42  39 NW10      30.06R
LOGAN          CLEAR     59  40  49 N12       30.06S
OGDEN          PTCLDY    67  40  37 N10       30.04R
PROVO AIRPORT  PTCLDY    70  36  28 NW12G20   30.03F
SALT LAKE CITY MOCLDY    74  34  23 W7        30.02S
VERNAL         CLOUDY    66  30  26 N13       30.01R
WENDOVER       CLEAR     73  34  23 N14       30.04R
HEBER CITY     PTCLDY    59  32  36 E5        30.08S
WEST JORDAN    CLEAR     66  37  34 NW5       30.05S

$$

UTZ012>022-026-027-310400-

SOUTHERN/CENTRAL UTAH

CITY           SKY/WX    TMP DP  RH WIND       PRES   REMARKS
BLANDING       PTCLDY    62  26  24 NW8       30.09S
BRYCE CANYON   MOCLDY    49  33  54 E5        30.18S
CEDAR CITY     PTCLDY    67  29  24 N8        30.04R
DELTA          PTCLDY    70  25  18 NW8       30.04R
HANKSVILLE     PTCLDY    73  30  20 CALM      29.96R
MILFORD        CLEAR     71  28  20 N10       30.01R
MOAB/CYNLANDS  PTCLDY    79  28  15 N8        29.92R
PRICE          CLEAR     67  31  26 NW14G20   30.05R
ST GEORGE      PTCLDY    82  30  15 N5        29.89S
KANAB          PTCLDY    66  43  42 CALM      30.04S

$$

REGIONAL REPORTS     COLORADO/ARIZONA

CITY           SKY/WX    TMP DP  RH WIND       PRES   REMARKS
CRAIG, CO      CLOUDY    58  40  51 W3        30.09R
GRAND JUNCTION CLOUDY    67  32  27 E3        29.98R
RIFLE          CLOUDY    57  40  52 SE6       30.05R
MONTROSE       CLOUDY    63  34  33 SE15      30.07F
CORTEZ         CLEAR     66  28  24 VRB3      30.03R
PAGE, AZ       MOCLDY    76  28  17 CALM      29.93S
GRAND CANYON   PTCLDY    54  31  41 CALM      30.11S
KINGMAN        PTCLDY    73  24  16 E6        29.91S
FLAGSTAFF      MOCLDY    59  26  28 VRB3      30.13R

$$

REGIONAL REPORTS    NEVADA/IDAHO/WYOMING

CITY           SKY/WX    TMP DP  RH WIND       PRES   REMARKS
LAS VEGAS, NV  MOCLDY    91  28  10 E3        29.76S
ELY            CLEAR     63  33  32 N8        30.13R
ELKO           CLEAR     70  33  25 N8        30.11R
POCATELLO, ID  CLEAR     61  30  31 S10       30.07F
BURLEY         CLEAR     63  29  27 W9        30.06S
EVANSTON, WY   CLOUDY    55  38  52 NW6       30.17S
ROCK SPRINGS   CLOUDY    57  30  35 W16       30.13R
KEMMERER         N/A     50  30  46 NW12      30.18S

$$




USA.gov is the U.S. government's official web portal to all federal, state and local government web resources and services.